Location: Cleveland
(41.4990°N, 81.6960°W)
Time: 22:06:15
(UTC-04:00)

ISS - Pass Details

Date: 02 October 2021
Orbit: 417 x 423 km, 51.6° (Epoch: 24 October)

Event Time Altitude Azimuth Distance (km) Brightness Sun altitude
Rises 21:18:33 0° 302° (WNW) 2,364 1.3 -25.3°
Reaches altitude 10° 21:20:40 10° 297° (WNW) 1,498 0.1 -25.7°
Enters shadow 21:22:31 29° 283° (WNW) 807 -1.7 -26.0°
